Location: Bednik
(45.3500°N, 16.3833°E)
Time: 05:39:38
(UTC+00:00)

Cosmos 1238 Rocket - Pass Details

Date: 08 August 2020
Orbit: 375 x 1027 km, 82.9° (Epoch: 19 September)

Event Time Altitude Azimuth Distance (km) Brightness Sun altitude
Exits shadow 20:29:00 62° 28° (NNE) 441 2.3 -19.9°
Drops below altitude 10° 20:31:34 10° 10° (N) 1,401 5.4 -20.2°
Sets 20:33:31 0° 10° (N) 2,255 6.6 -20.4°
